STARLINK-37904

Last updated on Sun Aug 09 2026 00:02:04 GMT+0000 (Coordinated Universal Time)

1 69947U 26157E 26220.58335648 -.00996486 00000+0 -20946-1 0 9995 2 69947 53.1598 174.5389 0001090 90.7562 183.9027 15.47453002 6089
UTC large
Height (km)
Speed (km/s)
/
Latitude / Longitude
Inclination (degrees)
Orbital Period (minutes)
Azimuth
Elevation
Range (km)
Doppler Factor

Next 0 passes for location: London (51.5072 / 0.1276)

No passes found over London.
STARLINK-37904